Satellite: FCAL
Catalog number: 29667
Epoch time:      08066.64199730
Element set:     808
Inclination:      051.6316 deg
RA of node:       140.0547 deg
Eccentricity:    0.0008126
Arg of perigee:   320.7714 deg
Mean anomaly:     039.2735 deg
Mean motion:   16.04104508 rev/day
Decay rate:     5.7174e-04 rev/day^2
Epoch rev:            7003
Checksum:              288

Satellite: FALCON
Catalog number: 30776
Epoch time:      08066.21019218
Element set:     262
Inclination:      035.4328 deg
RA of node:       057.9878 deg
Eccentricity:    0.0000868
Arg of perigee:   232.7718 deg
Mean anomaly:     127.2919 deg
Mean motion:   15.02900780 rev/day
Decay rate:       6.14e-06 rev/day^2
Epoch rev:            5464
Checksum:              300

Satellite: MAST
Catalog number: 31126
Epoch time:      08066.18142731
Element set:     271
Inclination:      098.0491 deg
RA of node:       134.6834 deg
Eccentricity:    0.0093789
Arg of perigee:   291.5023 deg
Mean anomaly:     067.6210 deg
Mean motion:   14.53403202 rev/day
Decay rate:        7.0e-08 rev/day^2
Epoch rev:            4705
Checksum:              268

Satellite: CAPE1
Catalog number: 31130
Epoch time:      08066.16633989
Element set:     251
Inclination:      098.0513 deg
RA of node:       133.9155 deg
Eccentricity:    0.0101641
Arg of perigee:   293.5156 deg
Mean anomaly:     065.5399 deg
Mean motion:   14.51935940 rev/day
Decay rate:       -4.7e-07 rev/day^2
Epoch rev:            4677
Checksum:              303

/EX





More information about the Keps mailing list